Regional Weather Roundup
Issued by NWS

Home | Current Version | Previous Version | Text Only | Print | Product List | Glossary Off
Versions: 1 2 3 4 5 6 7 8 9 10 11 12 13 14 15 16 17 18 19 20 21 22 23 24 25 26 27 28 29 30 31 32 33 34 35 36 37 38 39 40 41 42 43 44 45 46 47 48 49 50

621
ASUS43 KOAX 191502
RWRNE

WEATHER ROUNDUP FOR NEBRASKA
NATIONAL WEATHER SERVICE OMAHA NE
900 AM CST SUN FEB 19 2017

NOTES: SATELLITE DATA IS BEING USED TO AUGMENT CLOUD COVER ABOVE
       12000 FEET.
       "FAIR" INDICATES FEW OR NO CLOUDS BELOW 12,000 FEET WITH NO
       SIGNIFICANT WEATHER AND/OR OBSTRUCTIONS TO VISIBILITY.

  * THESE STATIONS DO NOT REPORT WEATHER SUCH AS RAIN...SNOW OR FOG.

NEZ001>004-019>022-054>056-191600-
NEBRASKA PANHANDLE

CITY           SKY/WX    TMP DP  RH WIND       PRES   REMARKS
SCOTTSBLUFF    CLOUDY    34  27  75 CALM      29.66S
ALLIANCE       CLOUDY    29  26  89 CALM      29.65R
CHADRON        CLOUDY    42  30  62 SW6       29.62R
KIMBALL        CLOUDY    35  31  85 CALM      29.68R
SIDNEY         CLOUDY    37  26  64 W7        29.68R WCI  32
$$

NEZ057>060-069>072-079>082-191600-
SOUTHWEST NEBRASKA

CITY           SKY/WX    TMP DP  RH WIND       PRES   REMARKS
NORTH PLATTE   MOSUNNY   49  40  71 SE10      29.72R
IMPERIAL       CLOUDY    46  35  65 SE6       29.71R
LEXINGTON      MOSUNNY   47  44  90 S10       29.76R
MCCOOK         CLOUDY    51  46  83 S8        29.74S
OGALLALA       CLOUDY    46  36  67 S7        29.69R
$$

NEZ005>010-023>029-035>040-094-191600-
NORTH CENTRAL NEBRASKA

CITY           SKY/WX    TMP DP  RH WIND       PRES   REMARKS
VALENTINE      CLOUDY    46  34  62 S16       29.63F
AINSWORTH      CLOUDY    46  38  75 S12       29.68R
BROKEN BOW     MOSUNNY   45  42  89 SE8       29.74S
O`NEILL        CLOUDY    48  43  83 S13G18    29.73R
ORD            MOSUNNY   49  44  83 S12       29.76R
THEDFORD       CLOUDY    48  38  70 S14G21    29.69R
$$

NEZ041-046>049-061>064-073>077-083>087-191600-
SOUTH CENTRAL NEBRASKA

CITY           SKY/WX    TMP DP  RH WIND       PRES   REMARKS
GRAND ISLAND   MOSUNNY   47  46  97 S15       29.82R FOG
AURORA         CLOUDY    48  46  93 S7        29.82S
HASTINGS       MOSUNNY   48  45  89 S9        29.84R FOG
HEBRON         MOSUNNY   50  48  91 S10G16    29.87S
HOLDREGE       CLOUDY    47  46  94 S13G20    29.79R FOG
KEARNEY *      PTSUNNY   48  45  87 S15G21    29.80S
YORK           CLOUDY    48  46  93 S10       29.84S
$$

NEZ011>018-030>034-042>045-191600-
NORTHEAST NEBRASKA

CITY           SKY/WX    TMP DP  RH WIND       PRES   REMARKS
NORFOLK        MOSUNNY   49  44  83 S13       29.79F
ALBION         CLOUDY    45  42  90 SE8       29.79S FOG
BLAIR          MOSUNNY   49  44  80 S7        29.88S
FREMONT        CLOUDY    49  44  83 SE7       29.87S
TEKAMAH        MOSUNNY   42  38  85 SE5       29.88S
WAYNE          MOSUNNY   45  41  85 SE14      29.81F
$$

NEZ050>053-065>068-078-088>093-191600-
SOUTHEAST NEBRASKA

CITY           SKY/WX    TMP DP  RH WIND       PRES   REMARKS
LINCOLN        MOSUNNY   49  46  90 S10       29.89S
OMAHA EPPLEY   PTSUNNY   50  43  77 S10       29.89S
BEATRICE       MOSUNNY   50  48  92 S7        29.90S
FALLS CITY     PTSUNNY   48  47  96 SE7       29.92F FOG
NEBRASKA CITY  PTSUNNY   48  45  91 S9        29.92S
PLATTSMOUTH    PTSUNNY   50  44  80 SE10      29.90S
$$

NEZ044-045-051>053-067-191600-
OMAHA AREA

CITY           SKY/WX    TMP DP  RH WIND       PRES   REMARKS
OMAHA EPPLEY   PTSUNNY   50  43  77 S10       29.89S
BLAIR          MOSUNNY   49  44  80 S7        29.88S
FREMONT        CLOUDY    49  44  83 SE7       29.87S
MILLARD        MOSUNNY   49  43  80 SE7       29.90S
OFFUTT AFB     MOSUNNY   50  50 100 S8        29.90S
PLATTSMOUTH    PTSUNNY   50  44  80 SE10      29.90S
WAHOO          FAIR      45  42  88 S6        29.88S
$$




USA.gov is the U.S. government's official web portal to all federal, state and local government web resources and services.